Location: Cache
(41.8359°N, 112.0029°W)
Time: 19:47:36
(UTC+00:00)

ISS - Visible Passes

Search period start: 22 February 2020 00:00
Search period end: 03 March 2020 00:00
Orbit: 415 x 422 km, 51.6° (Epoch: 23 February)

Date Brightness Start Highest point End Pass type
(mag) Time Alt. Az. Time Alt. Az. Time Alt. Az.
22 Feb -3.5 13:25:46 10° SW 13:29:07 69° SE 13:32:30 10° ENE visible
23 Feb -2.6 12:39:52 22° SSW 12:41:33 39° SE 12:44:44 10° ENE visible
24 Feb -1.5 11:54:38 22° ESE 11:54:38 22° ESE 11:56:48 10° E visible
24 Feb -3.3 13:27:37 11° WSW 13:30:40 45° NNW 13:33:57 10° NE visible
25 Feb -3.8 12:42:13 49° W 12:42:59 72° NNW 12:46:22 10° NE visible
26 Feb -2.0 11:56:41 33° ENE 11:56:41 33° ENE 11:58:41 10° ENE visible
26 Feb -2.3 13:29:39 10° WNW 13:32:23 24° NNW 13:35:14 10° NE visible
27 Feb -2.7 12:44:00 29° NW 12:44:34 32° NNW 12:47:39 10° NE visible
28 Feb -1.9 11:58:16 27° NNE 11:58:16 27° NNE 12:00:04 10° NE visible
28 Feb -1.7 13:31:54 10° NW 13:34:14 17° N 13:36:33 10° NE visible
29 Feb -1.9 12:45:25 18° NW 12:46:19 20° NNW 12:48:53 10° NE visible
01 Mar -1.6 11:59:34 20° NNE 11:59:34 20° NNE 12:01:16 10° NE visible
02 Mar -1.5 12:46:37 13° NW 12:48:08 16° N 12:50:18 10° NE visible
